Location: Tom
(33.0437°N, 96.9452°W)
Time: 07:12:01
(UTC-05:00)

Envisat - Pass Details

Date: 23 January 2019
Orbit: 764 x 766 km, 98.2° (Epoch: 22 April)

Event Time Altitude Azimuth Distance (km) Brightness Sun altitude
Rises 18:28:07 0° 139° (SE) 3,215 6.0 -8.1°
Reaches altitude 10° 18:30:41 10° 127° (SE) 2,293 5.1 -8.6°
Maximum altitude 18:34:56 28° 70° (ENE) 1,412 3.8 -9.4°
Drops below altitude 10° 18:39:11 10° 13° (NNE) 2,305 5.2 -10.3°
Sets 18:41:46 0° 2° (N) 3,235 6.1 -10.8°
